[[{"header":{"parameterUnit":"m.s-1","parameterCategory":1,"la1":30.2991,"la2":30.254,"lo1":-89.0895,"lo2":-89.0444,"dy":0.0017,"dx":0.0017,"nx":28,"ny":28,"refTime":"2025-06-22T03:00:00:Z","depth":0,"parameterNumber":2,"parameterNumberName":"U-component_of_WINDS"},"data":[0,0,0,0,0,0,0,0,0,0,0,0,0,0,0,0,0,0,0,0,0,0,0,0,0,0,0,0,0,0,0,0,0,0,0,0,0,0,0,0,0,0,0,0,0,0,0,0,0,0,0,0,0,0,0,0,0,0,-1.8835,-1.8834,0,-1.8802,-1.8802,-1.8802,-1.875,-1.8749,-1.8748,-1.8747,-1.8713,-1.8713,-1.8713,0,0,0,0,0,0,0,0,0,0,0,0,0,-1.8852,-1.8852,-1.8835,-1.8834,-1.8834,-1.8802,-1.8802,-1.8802,-1.875,-1.8749,-1.8748,-1.8747,-1.8713,-1.8713,-1.8713,0,0,0,0,0,0,0,0,0,0,0,0,0,-1.8835,-1.8852,-1.8835,-1.8805,-1.8801,-1.8803,-1.8802,-1.8801,-1.875,-1.8749,-1.8748,-1.8746,-1.8713,-1.8713,-1.8713,-1.874,0,0,-1.8713,-1.8713,0,0,0,0,0,0,0,0,-1.8836,-1.8834,-1.8809,-1.8807,-1.8803,-1.8779,-1.8795,-1.8781,-1.8751,-1.877,-1.8747,-1.8746,-1.8736,-1.8734,-1.8731,-1.8739,-1.8737,-1.8713,-1.8713,-1.8713,-1.8713,0,0,0,0,0,0,0,-1.8837,-1.8835,-1.8822,-1.8809,-1.8805,-1.8792,-1.8788,-1.8792,-1.8761,-1.8768,-1.8764,-1.8761,-1.8734,-1.8731,-1.873,-1.8737,-1.8713,-1.8713,-1.8712,-1.8712,-1.8767,-1.8768,0,0,0,0,0,0,-1.8843,-1.8836,-1.8823,-1.8821,-1.8816,-1.8793,-1.8789,-1.8788,-1.8761,-1.8755,-1.8762,-1.8759,-1.8732,-1.873,-1.8728,-1.8759,-1.8713,-1.8712,-1.8712,-1.8765,-1.8767,-1.8768,0,0,0,0,0,0,-1.8843,-1.8842,-1.8824,-1.8828,-1.8824,-1.8795,-1.8794,-1.8788,-1.8785,-1.8757,-1.8751,-1.8765,-1.8731,-1.8728,-1.8738,-1.8757,-1.8712,-1.8712,-1.8763,-1.8766,-1.8768,-1.8821,0,0,0,0,0,0,-1.8844,-1.8842,-1.8853,-1.8828,-1.8824,-1.8835,-1.8795,-1.8789,-1.8785,-1.878,-1.8758,-1.8752,-1.8729,-1.8738,-1.8738,-1.8756,-1.8712,-1.8761,-1.8764,-1.8767,-1.8817,-1.8824,-1.8831,0,0,0,0,0,-1.8845,-1.8868,-1.8853,-1.8852,-1.8837,-1.8836,-1.8834,-1.8807,-1.8787,-1.8797,-1.8779,-1.8753,-1.8755,-1.874,-1.8739,-1.8757,-1.876,-1.8764,-1.8767,-1.8814,-1.8823,-1.883,0,0,0,0,0,0,-1.8895,-1.8865,-1.8847,-1.8864,-1.8853,-1.8827,-1.8839,-1.8817,-1.8811,-1.8807,-1.8774,-1.8769,-1.8783,-1.8771,-1.8754,-1.8783,-1.8754,-1.8757,-1.879,-1.8798,-1.8805,-1.8807,-1.8712,0,0,0,0,0,-1.8908,-1.891,-1.8884,-1.8901,-1.8896,-1.8869,-1.8868,-1.8848,-1.8835,-1.883,-1.8812,-1.8801,-1.8799,-1.8798,-1.8794,-1.8815,-1.881,-1.8828,-1.8835,-1.884,-1.8843,-1.8854,-1.8862,-1.8779,-1.8779,-1.8779,0,0,-1.8935,-1.8919,-1.8922,-1.8911,-1.89,-1.8903,-1.8865,-1.887,-1.8872,-1.883,-1.8839,-1.8826,-1.881,-1.8826,-1.8832,-1.8817,-1.8865,-1.8845,-1.8849,-1.8849,-1.8858,-1.8866,-1.8873,-1.8782,-1.8781,-1.8781,0,0,-1.8985,-1.8974,-1.8987,-1.8977,-1.8961,-1.8943,-1.8946,-1.8924,-1.8914,-1.8922,-1.8891,-1.8893,-1.889,-1.8881,-1.8876,-1.8924,-1.8901,-1.8924,-1.8959,-1.897,-1.8977,-1.8982,-1.8999,-1.9006,-1.8927,-1.8928,-1.8928,0,-1.9021,-1.9024,-1.8996,-1.9003,-1.8999,-1.8963,-1.8976,-1.8968,-1.8952,-1.895,-1.8933,-1.8929,-1.8916,-1.893,-1.8942,-1.8939,-1.8941,-1.8926,-1.8978,-1.8983,-1.8988,-1.9004,-1.9011,-1.8931,-1.893,-1.893,-1.893,0,-1.9068,-1.9071,-1.9084,-1.907,-1.9067,-1.9078,-1.9051,-1.9052,-1.9033,-1.9017,-1.9026,-1.9009,-1.9002,-1.9004,-1.8985,-1.9015,-1.9006,-1.8984,-1.8954,-1.8999,-1.9014,-1.902,-1.8935,-1.8934,-1.8933,-1.8932,0,0,-1.9148,-1.912,-1.9125,-1.9118,-1.9099,-1.9101,-1.911,-1.9103,-1.9104,-1.9095,-1.9101,-1.9101,-1.9081,-1.9075,-1.9055,-1.9065,-1.9105,-1.9042,-1.9041,-1.9054,-1.9136,-1.9152,-1.916,-1.9089,-1.909,-1.9091,-1.9137,0,-1.9195,-1.9208,-1.9183,-1.9202,-1.9205,-1.9171,-1.9179,-1.9168,-1.9153,-1.9153,-1.9137,-1.9137,-1.9111,-1.9107,-1.9115,-1.9098,-1.912,-1.9094,-1.9094,-1.9095,-1.9099,-1.9167,-1.9184,-1.9228,-1.9143,-1.9144,-1.9144,0,-1.925,-1.9244,-1.9263,-1.9244,-1.9244,-1.9251,-1.9243,-1.9244,-1.9231,-1.922,-1.9214,-1.9191,-1.9199,-1.9171,-1.918,-1.9163,-1.9162,-1.9153,-1.9155,-1.9153,-1.9122,-1.9167,-1.9242,-1.9248,-1.9153,-1.9152,-1.9152,0,-1.9306,-1.9303,-1.9314,-1.931,-1.9287,-1.9293,-1.9284,-1.927,-1.9268,-1.9261,-1.926,-1.9254,-1.9251,-1.9247,-1.9224,-1.9205,-1.9236,-1.9206,-1.9227,-1.9227,-1.9234,-1.9234,-1.9309,-1.9234,-1.9234,-1.9234,-1.9234,0,-1.936,-1.9373,-1.9339,-1.9346,-1.936,-1.9332,-1.9347,-1.9334,-1.9322,-1.9326,-1.9297,-1.9301,-1.927,-1.9271,-1.9252,-1.9263,-1.9262,-1.9253,-1.9248,-1.9255,-1.9257,-1.9253,-1.925,-1.9236,-1.9235,-1.9235,-1.9235,0,-1.9425,-1.9403,-1.9413,-1.9391,-1.9386,-1.9397,-1.9378,-1.9384,-1.9368,-1.9373,-1.9373,-1.9348,-1.9347,-1.9324,-1.9318,-1.9306,-1.9324,-1.9314,-1.9329,-1.9325,-1.9347,-1.9346,-1.9423,-1.9432,-1.9352,-1.9353,-1.9353,0,-1.946,-1.947,-1.9449,-1.945,-1.9442,-1.9444,-1.9442,-1.9415,-1.9414,-1.9401,-1.9408,-1.9406,-1.9402,-1.9404,-1.9385,-1.9381,-1.9369,-1.9397,-1.9368,-1.9376,-1.937,-1.9369,-1.937,-1.9403,-1.9404,-1.9404,-1.9405,0,-1.9526,-1.9515,-1.9513,-1.9508,-1.9507,-1.9501,-1.9494,-1.9496,-1.9467,-1.9468,-1.9467,-1.9465,-1.946,-1.9458,-1.945,-1.9441,-1.9418,-1.9414,-1.9419,-1.9426,-1.9435,-1.9431,-1.9345,-1.9413,-1.9412,-1.9411,-1.9411,-1.9411,-1.9577,-1.9584,-1.9571,-1.957,-1.9562,-1.9556,-1.9561,-1.9546,-1.9545,-1.9539,-1.9523,-1.9526,-1.9513,-1.9501,-1.9494,-1.9495,-1.9481,-1.9488,-1.9489,-1.9492,-1.9496,-1.9435,-1.9494,-1.9493,-1.9493,-1.9493,-1.9493,0,-1.9641,-1.9631,-1.9631,-1.9622,-1.9622,-1.9601,-1.9592,-1.9593,-1.9596,-1.9586,-1.9584,-1.9584,-1.9582,-1.9563,-1.9559,-1.9564,-1.9554,-1.9564,-1.9563,-1.9561,-1.9508,-1.9505,-1.9573,-1.9572,-1.9572,-1.9572,-1.9572,-1.9572,-1.9674,-1.9685,-1.9673,-1.968,-1.9669,-1.9672,-1.9668,-1.9663,-1.9655,-1.9657,-1.9655,-1.9643,-1.963,-1.9625,-1.9623,-1.9617,-1.9617,-1.9631,-1.9622,-1.9573,-1.9565,-1.9558,-1.9554,-1.9631,-1.9631,-1.9675,-1.9675,-1.9675]},{"header":{"parameterUnit":"m.s-1","parameterCategory":1,"la1":30.2991,"la2":30.254,"lo1":-89.0895,"lo2":-89.0444,"dy":0.0017,"dx":0.0017,"nx":28,"ny":28,"refTime":"2025-06-22T03:00:00:Z","depth":0,"parameterNumber":3,"parameterNumberName":"V-component_of_WINDS"},"data":[0,0,0,0,0,0,0,0,0,0,0,0,0,0,0,0,0,0,0,0,0,0,0,0,0,0,0,0,0,0,0,0,0,0,0,0,0,0,0,0,0,0,0,0,0,0,0,0,0,0,0,0,0,0,0,0,0,0,3.0614,3.0614,0,3.0604,3.0603,3.0603,3.06,3.06,3.06,3.06,3.0587,3.0586,3.0586,0,0,0,0,0,0,0,0,0,0,0,0,0,3.0631,3.063,3.0614,3.0614,3.0614,3.0604,3.0603,3.0603,3.06,3.06,3.06,3.06,3.0587,3.0586,3.0586,0,0,0,0,0,0,0,0,0,0,0,0,0,3.0622,3.063,3.0614,3.0611,3.0611,3.0604,3.0603,3.0603,3.06,3.06,3.06,3.06,3.0587,3.0586,3.0586,3.058,0,0,3.0584,3.0584,0,0,0,0,0,0,0,0,3.0623,3.0621,3.0612,3.0612,3.0611,3.0603,3.0604,3.0595,3.06,3.0604,3.06,3.06,3.0592,3.0591,3.0589,3.0579,3.0579,3.0584,3.0583,3.0583,3.0583,0,0,0,0,0,0,0,3.0623,3.0622,3.061,3.0612,3.0611,3.061,3.0609,3.0603,3.0598,3.0604,3.0604,3.0603,3.0592,3.0589,3.0588,3.0579,3.0584,3.0583,3.0583,3.0583,3.0565,3.0565,0,0,0,0,0,0,3.0625,3.0622,3.061,3.061,3.0617,3.061,3.0608,3.0606,3.0598,3.0597,3.0602,3.0602,3.059,3.0589,3.0588,3.0581,3.0583,3.0583,3.0582,3.0565,3.0565,3.0565,0,0,0,0,0,0,3.0625,3.0624,3.0611,3.0616,3.0614,3.0609,3.0606,3.0605,3.0603,3.0597,3.0596,3.0601,3.059,3.0589,3.0582,3.058,3.0582,3.0582,3.0565,3.0565,3.0565,3.0567,0,0,0,0,0,0,3.0625,3.0624,3.0622,3.0616,3.0614,3.0606,3.0606,3.0605,3.0602,3.0602,3.0595,3.0594,3.059,3.0583,3.0582,3.058,3.0581,3.0565,3.0565,3.0565,3.0567,3.0567,3.0567,0,0,0,0,0,3.0626,3.0622,3.0622,3.062,3.0612,3.0606,3.0605,3.0601,3.0602,3.06,3.0596,3.0594,3.0581,3.0583,3.0581,3.0579,3.0565,3.0565,3.0565,3.0567,3.0567,3.0567,0,0,0,0,0,0,3.0627,3.0621,3.0621,3.0615,3.0611,3.0605,3.0602,3.0601,3.0596,3.0596,3.0592,3.059,3.0584,3.0581,3.0583,3.0573,3.0573,3.0572,3.0575,3.0575,3.0575,3.0576,3.0581,0,0,0,0,0,3.0626,3.0623,3.0618,3.0613,3.0611,3.0607,3.0605,3.0603,3.0598,3.0596,3.0592,3.0587,3.0582,3.0578,3.0573,3.0567,3.0565,3.0564,3.0564,3.0564,3.0563,3.056,3.056,3.0564,3.0564,3.0564,0,0,3.0625,3.0622,3.062,3.0613,3.061,3.0606,3.0606,3.0601,3.0598,3.0595,3.0589,3.0586,3.058,3.0574,3.0571,3.0571,3.0562,3.0564,3.0564,3.0563,3.056,3.056,3.0559,3.0564,3.0564,3.0564,0,0,3.0621,3.0618,3.0614,3.0611,3.0607,3.0604,3.0603,3.0598,3.0596,3.059,3.0588,3.0584,3.0575,3.0572,3.0568,3.0564,3.0562,3.0562,3.0562,3.0559,3.0558,3.0558,3.0557,3.0556,3.0562,3.0562,3.0562,0,3.062,3.0614,3.0612,3.0608,3.0606,3.0604,3.06,3.0597,3.059,3.0589,3.0589,3.0578,3.0574,3.0567,3.0566,3.0564,3.0563,3.0563,3.0559,3.0558,3.0558,3.0557,3.0556,3.0562,3.0562,3.0562,3.0562,0,3.0613,3.061,3.0607,3.0602,3.0599,3.0595,3.0592,3.0589,3.0588,3.0585,3.058,3.0575,3.0569,3.0567,3.0565,3.056,3.056,3.056,3.056,3.0558,3.0557,3.0556,3.0562,3.0562,3.0562,3.0562,0,0,3.0608,3.0604,3.0603,3.0601,3.0596,3.0593,3.0589,3.0584,3.0582,3.0578,3.0574,3.0567,3.0567,3.0564,3.0561,3.0559,3.0556,3.0558,3.0558,3.0558,3.0551,3.0551,3.0551,3.0555,3.0555,3.0555,3.0551,0,3.0604,3.0597,3.0596,3.059,3.0587,3.0585,3.0582,3.0578,3.0576,3.0573,3.057,3.0565,3.0565,3.0563,3.056,3.0557,3.0554,3.0557,3.0551,3.0551,3.0553,3.055,3.055,3.0547,3.0551,3.055,3.055,0,3.0597,3.0594,3.0589,3.0585,3.0584,3.0581,3.0577,3.0573,3.057,3.0568,3.0565,3.0563,3.0559,3.0559,3.0553,3.0555,3.0553,3.0551,3.0551,3.055,3.055,3.0549,3.0546,3.0545,3.055,3.055,3.055,0,3.0595,3.0589,3.0585,3.0583,3.0579,3.0577,3.0575,3.0572,3.0569,3.0566,3.0564,3.056,3.0557,3.0554,3.0551,3.0551,3.0545,3.0545,3.0543,3.0543,3.0541,3.0542,3.0538,3.054,3.054,3.054,3.054,0,3.059,3.0586,3.0584,3.0581,3.0578,3.0576,3.0572,3.057,3.0567,3.0564,3.0562,3.0559,3.0556,3.0552,3.055,3.0545,3.0544,3.0542,3.0542,3.0542,3.0543,3.054,3.0541,3.054,3.054,3.054,3.054,0,3.0586,3.0584,3.058,3.0577,3.0576,3.0573,3.057,3.0568,3.0566,3.0562,3.0561,3.0558,3.0553,3.0551,3.0545,3.0543,3.0538,3.0538,3.054,3.054,3.0538,3.0538,3.0532,3.0532,3.0535,3.0535,3.0535,0,3.0582,3.058,3.0577,3.0575,3.0574,3.0571,3.0568,3.0567,3.0564,3.0561,3.0559,3.0555,3.0551,3.0545,3.0542,3.0537,3.0537,3.0535,3.0536,3.0537,3.0537,3.0537,3.0537,3.0535,3.0535,3.0535,3.0535,0,3.0577,3.0577,3.0574,3.0571,3.0569,3.0567,3.0564,3.0563,3.056,3.0558,3.0554,3.0552,3.0547,3.0543,3.0539,3.0536,3.0535,3.0535,3.0534,3.0534,3.0536,3.0535,3.054,3.0535,3.0535,3.0535,3.0535,3.0535,3.0573,3.0571,3.0569,3.0566,3.0565,3.0563,3.056,3.0559,3.0556,3.0552,3.0551,3.0547,3.0544,3.0539,3.0536,3.0533,3.0533,3.0532,3.0532,3.0532,3.0532,3.0537,3.0532,3.0532,3.0532,3.0532,3.0532,0,3.0568,3.0567,3.0564,3.0561,3.0559,3.0559,3.0557,3.0555,3.0552,3.055,3.0547,3.0543,3.0539,3.0536,3.0533,3.0531,3.053,3.053,3.053,3.0529,3.0532,3.0533,3.0531,3.0531,3.0531,3.0531,3.0531,3.0531,3.0565,3.0561,3.0561,3.0557,3.0555,3.0552,3.0551,3.0549,3.0547,3.0543,3.0541,3.0539,3.0537,3.0533,3.053,3.0529,3.0528,3.0528,3.0527,3.0529,3.0529,3.0529,3.053,3.0527,3.0527,3.0525,3.0524,3.0524]}]]